Time,TemperatureF,DewpointF,PressureIn,WindDirection,WindDirectionDegrees,WindSpeedMPH,WindSpeedGustMPH,Humidity,HourlyPrecipIn,Conditions,Clouds,dailyrainin,SoftwareType,DateUTC
2013-04-03 00:17:00,31.8,17.1,29.86,SSW,202,6.8,-999.0,54,-99.99,,,0.00,Acu-Link.com,2013-04-03 04:17:00,
2013-04-03 00:32:00,31.8,17.1,29.86,SW,225,2.7,-999.0,54,-99.99,,,0.00,Acu-Link.com,2013-04-03 04:32:00,
2013-04-03 00:48:00,31.5,17.2,29.86,West,270,9.4,-999.0,55,-99.99,,,0.00,Acu-Link.com,2013-04-03 04:48:00,
2013-04-03 01:03:00,31.8,17.5,29.87,WSW,247,4.7,-999.0,55,-99.99,,,0.00,Acu-Link.com,2013-04-03 05:03:00,
2013-04-03 01:18:00,32.2,18.3,29.86,WSW,247,9.4,-999.0,56,-99.99,,,0.00,Acu-Link.com,2013-04-03 05:18:00,
2013-04-03 01:33:00,31.6,18.1,29.87,NNE,22,2.7,-999.0,57,-99.99,,,0.00,Acu-Link.com,2013-04-03 05:33:00,
2013-04-03 01:48:00,32.0,18.1,29.87,WSW,247,3.7,-999.0,56,-99.99,,,0.00,Acu-Link.com,2013-04-03 05:48:00,
2013-04-03 02:03:00,31.8,17.9,29.87,SW,225,3.7,-999.0,56,-99.99,,,0.00,Acu-Link.com,2013-04-03 06:03:00,
2013-04-03 02:18:00,31.8,17.9,29.87,South,180,4.7,-999.0,56,-99.99,,,0.00,Acu-Link.com,2013-04-03 06:18:00,
2013-04-03 02:33:00,31.6,18.1,29.87,SW,225,7.3,-999.0,57,-99.99,,,0.00,Acu-Link.com,2013-04-03 06:33:00,
2013-04-03 02:48:00,31.5,17.6,29.86,West,270,3.7,-999.0,56,-99.99,,,0.00,Acu-Link.com,2013-04-03 06:48:00,
2013-04-03 03:04:00,31.8,17.9,29.86,WNW,292,5.3,-999.0,56,-99.99,,,0.00,Acu-Link.com,2013-04-03 07:04:00,
2013-04-03 03:19:00,31.5,18.4,29.87,NNE,22,7.8,-999.0,58,-99.99,,,0.00,Acu-Link.com,2013-04-03 07:19:00,
2013-04-03 03:49:00,31.3,17.9,29.86,West,270,6.3,-999.0,57,-99.99,,,0.00,Acu-Link.com,2013-04-03 07:49:00,
2013-04-03 04:04:00,31.3,17.0,29.86,South,180,5.3,-999.0,55,-99.99,,,0.00,Acu-Link.com,2013-04-03 08:04:00,
2013-04-03 04:19:00,31.3,16.6,29.87,West,270,2.7,-999.0,54,-99.99,,,0.00,Acu-Link.com,2013-04-03 08:19:00,
2013-04-03 04:34:00,31.1,16.0,29.87,WSW,247,4.7,-999.0,53,-99.99,,,0.00,Acu-Link.com,2013-04-03 08:34:00,
2013-04-03 04:50:00,30.7,16.5,29.88,WSW,247,3.7,-999.0,55,-99.99,,,0.00,Acu-Link.com,2013-04-03 08:50:00,
2013-04-03 05:05:00,30.7,16.5,29.87,WSW,247,4.7,-999.0,55,-99.99,,,0.00,Acu-Link.com,2013-04-03 09:05:00,
2013-04-03 05:20:00,30.4,16.6,29.88,WSW,247,2.7,-999.0,56,-99.99,,,0.00,Acu-Link.com,2013-04-03 09:20:00,
2013-04-03 05:35:00,29.8,16.4,29.88,WSW,247,7.8,-999.0,57,-99.99,,,0.00,Acu-Link.com,2013-04-03 09:35:00,
2013-04-03 05:50:00,29.8,16.4,29.89,WSW,247,3.2,-999.0,57,-99.99,,,0.00,Acu-Link.com,2013-04-03 09:50:00,
2013-04-03 06:05:00,29.8,15.6,29.89,WNW,292,3.2,-999.0,55,-99.99,,,0.00,Acu-Link.com,2013-04-03 10:05:00,
2013-04-03 06:21:00,29.5,15.8,29.91,SSW,202,2.7,-999.0,56,-99.99,,,0.00,Acu-Link.com,2013-04-03 10:21:00,
2013-04-03 06:36:00,29.7,15.1,29.91,WSW,247,4.2,-999.0,54,-99.99,,,0.00,Acu-Link.com,2013-04-03 10:36:00,
2013-04-03 07:06:00,30.2,14.7,29.92,SW,225,4.2,-999.0,52,-99.99,,,0.00,Acu-Link.com,2013-04-03 11:06:00,
2013-04-03 07:36:00,31.1,16.0,29.93,South,180,3.2,-999.0,53,-99.99,,,0.00,Acu-Link.com,2013-04-03 11:36:00,
2013-04-03 07:51:00,32.2,16.1,29.93,South,180,4.7,-999.0,51,-99.99,,,0.00,Acu-Link.com,2013-04-03 11:51:00,
2013-04-03 08:06:00,32.7,15.7,29.93,SW,225,13.0,-999.0,49,-99.99,,,0.00,Acu-Link.com,2013-04-03 12:06:00,
2013-04-03 08:21:00,33.4,15.8,29.92,NE,45,3.7,-999.0,48,-99.99,,,0.00,Acu-Link.com,2013-04-03 12:21:00,
2013-04-03 08:37:00,33.6,14.6,29.93,West,270,8.9,-999.0,45,-99.99,,,0.00,Acu-Link.com,2013-04-03 12:37:00,
2013-04-03 08:52:00,33.8,14.7,29.92,South,180,14.5,-999.0,45,-99.99,,,0.00,Acu-Link.com,2013-04-03 12:52:00,
2013-04-03 09:07:00,33.6,15.1,29.92,WNW,292,12.5,-999.0,46,-99.99,,,0.00,Acu-Link.com,2013-04-03 13:07:00,
2013-04-03 09:22:00,34.7,15.0,29.91,NNW,337,19.7,-999.0,44,-99.99,,,0.00,Acu-Link.com,2013-04-03 13:22:00,
2013-04-03 09:37:00,35.4,14.6,29.91,NW,315,9.9,-999.0,42,-99.99,,,0.00,Acu-Link.com,2013-04-03 13:37:00,
2013-04-03 09:52:00,36.3,15.4,29.90,NNW,337,8.9,-999.0,42,-99.99,,,0.00,Acu-Link.com,2013-04-03 13:52:00,
2013-04-03 10:07:00,37.2,16.2,29.89,SW,225,5.8,-999.0,42,-99.99,,,0.00,Acu-Link.com,2013-04-03 14:07:00,
2013-04-03 10:22:00,37.8,16.2,29.90,WSW,247,13.0,-999.0,41,-99.99,,,0.00,Acu-Link.com,2013-04-03 14:22:00,
2013-04-03 10:38:00,38.1,15.4,29.89,West,270,3.7,-999.0,39,-99.99,,,0.00,Acu-Link.com,2013-04-03 14:38:00,
2013-04-03 10:53:00,38.5,13.9,29.90,WNW,292,8.9,-999.0,36,-99.99,,,0.01,Acu-Link.com,2013-04-03 14:53:00,
2013-04-03 11:08:00,39.2,13.2,29.89,WNW,292,6.3,-999.0,34,-99.99,,,0.01,Acu-Link.com,2013-04-03 15:08:00,
2013-04-03 11:39:00,40.3,12.1,29.89,WSW,247,9.9,-999.0,31,-99.99,,,0.01,Acu-Link.com,2013-04-03 15:39:00,
2013-04-03 11:54:00,41.5,13.1,29.89,West,270,6.8,-999.0,31,-99.99,,,0.01,Acu-Link.com,2013-04-03 15:54:00,
2013-04-03 12:09:00,41.7,13.3,29.88,NNE,22,8.3,-999.0,31,-99.99,,,0.01,Acu-Link.com,2013-04-03 16:09:00,
2013-04-03 12:55:00,42.4,12.4,29.88,WSW,247,9.4,-999.0,29,-99.99,,,0.01,Acu-Link.com,2013-04-03 16:55:00,
2013-04-03 13:25:00,44.2,13.2,29.87,West,270,4.7,-999.0,28,-99.99,,,0.01,Acu-Link.com,2013-04-03 17:25:00,
2013-04-03 13:40:00,44.1,13.1,29.87,WNW,292,2.7,-999.0,28,-99.99,,,0.01,Acu-Link.com,2013-04-03 17:40:00,
2013-04-03 13:55:00,44.8,14.5,29.87,WSW,247,8.3,-999.0,29,-99.99,,,0.01,Acu-Link.com,2013-04-03 17:55:00,
2013-04-03 14:10:00,43.9,12.9,29.87,NW,315,10.4,-999.0,28,-99.99,,,0.01,Acu-Link.com,2013-04-03 18:10:00,
2013-04-03 14:25:00,44.1,13.9,29.87,West,270,6.8,-999.0,29,-99.99,,,0.01,Acu-Link.com,2013-04-03 18:25:00,
2013-04-03 14:40:00,45.3,13.3,29.87,WSW,247,4.2,-999.0,27,-99.99,,,0.01,Acu-Link.com,2013-04-03 18:40:00,
2013-04-03 14:55:00,45.9,13.8,29.87,NNW,337,9.9,-999.0,27,-99.99,,,0.01,Acu-Link.com,2013-04-03 18:55:00,
2013-04-03 15:10:00,48.0,15.6,29.87,WNW,292,6.8,-999.0,27,-99.99,,,0.01,Acu-Link.com,2013-04-03 19:10:00,
2013-04-03 15:26:00,47.3,15.9,29.87,WNW,292,7.3,-999.0,28,-99.99,,,0.01,Acu-Link.com,2013-04-03 19:26:00,
2013-04-03 15:56:00,45.9,13.8,29.85,West,270,8.9,-999.0,27,-99.99,,,0.01,Acu-Link.com,2013-04-03 19:56:00,
2013-04-03 16:26:00,46.2,14.9,29.86,WSW,247,6.3,-999.0,28,-99.99,,,0.01,Acu-Link.com,2013-04-03 20:26:00,
2013-04-03 16:42:00,45.5,14.3,29.86,NW,315,14.5,-999.0,28,-99.99,,,0.01,Acu-Link.com,2013-04-03 20:42:00,
2013-04-03 16:57:00,45.7,13.7,29.87,WSW,247,12.5,-999.0,27,-99.99,,,0.01,Acu-Link.com,2013-04-03 20:57:00,
2013-04-03 17:12:00,45.9,13.0,29.87,WSW,247,7.8,-999.0,26,-99.99,,,0.01,Acu-Link.com,2013-04-03 21:12:00,
2013-04-03 17:27:00,46.0,13.1,29.87,West,270,11.4,-999.0,26,-99.99,,,0.01,Acu-Link.com,2013-04-03 21:27:00,
2013-04-03 17:42:00,45.7,15.3,29.88,North,0,4.2,-999.0,29,-99.99,,,0.01,Acu-Link.com,2013-04-03 21:42:00,
2013-04-03 17:57:00,44.4,13.4,29.88,NNW,337,11.4,-999.0,28,-99.99,,,0.01,Acu-Link.com,2013-04-03 21:57:00,
2013-04-03 18:12:00,42.8,12.8,29.89,WNW,292,9.9,-999.0,29,-99.99,,,0.01,Acu-Link.com,2013-04-03 22:12:00,
2013-04-03 18:27:00,42.1,12.9,29.90,NW,315,7.3,-999.0,30,-99.99,,,0.01,Acu-Link.com,2013-04-03 22:27:00,
2013-04-03 18:42:00,41.0,12.7,29.91,SSW,202,3.7,-999.0,31,-99.99,,,0.01,Acu-Link.com,2013-04-03 22:42:00,
2013-04-03 18:57:00,40.1,12.6,29.93,West,270,9.9,-999.0,32,-99.99,,,0.01,Acu-Link.com,2013-04-03 22:57:00,
2013-04-03 19:13:00,39.2,13.2,29.93,WSW,247,3.2,-999.0,34,-99.99,,,0.01,Acu-Link.com,2013-04-03 23:13:00,
2013-04-03 19:28:00,38.5,13.9,29.95,SSW,202,7.3,-999.0,36,-99.99,,,0.01,Acu-Link.com,2013-04-03 23:28:00,
2013-04-03 19:43:00,37.9,14.0,29.95,SSE,157,4.2,-999.0,37,-99.99,,,0.01,Acu-Link.com,2013-04-03 23:43:00,
2013-04-03 20:44:00,36.3,14.3,30.00,West,270,6.3,-999.0,40,-99.99,,,0.01,Acu-Link.com,2013-04-04 00:44:00,
2013-04-03 21:14:00,35.6,14.8,30.02,WNW,292,5.8,-999.0,42,-99.99,,,0.01,Acu-Link.com,2013-04-04 01:14:00,
2013-04-03 21:29:00,35.1,15.4,30.02,West,270,4.7,-999.0,44,-99.99,,,0.01,Acu-Link.com,2013-04-04 01:29:00,
2013-04-03 21:44:00,34.7,15.6,30.03,West,270,7.3,-999.0,45,-99.99,,,0.01,Acu-Link.com,2013-04-04 01:44:00,
2013-04-03 21:59:00,34.3,15.7,30.04,NW,315,4.7,-999.0,46,-99.99,,,0.01,Acu-Link.com,2013-04-04 01:59:00,
2013-04-03 22:14:00,34.3,15.7,30.05,WSW,247,4.7,-999.0,46,-99.99,,,0.01,Acu-Link.com,2013-04-04 02:14:00,
2013-04-03 22:29:00,33.8,15.7,30.05,NNW,337,2.7,-999.0,47,-99.99,,,0.01,Acu-Link.com,2013-04-04 02:29:00,
2013-04-03 22:44:00,33.4,15.4,30.06,WSW,247,5.8,-999.0,47,-99.99,,,0.01,Acu-Link.com,2013-04-04 02:44:00,
2013-04-03 23:00:00,32.9,15.9,30.06,WNW,292,6.8,-999.0,49,-99.99,,,0.01,Acu-Link.com,2013-04-04 03:00:00,
2013-04-03 23:15:00,33.3,16.2,30.08,WNW,292,5.8,-999.0,49,-99.99,,,0.01,Acu-Link.com,2013-04-04 03:15:00,
2013-04-03 23:30:00,32.9,16.3,30.07,WSW,247,7.3,-999.0,50,-99.99,,,0.01,Acu-Link.com,2013-04-04 03:30:00,
2013-04-03 23:45:00,32.7,16.1,30.08,West,270,2.2,-999.0,50,-99.99,,,0.01,Acu-Link.com,2013-04-04 03:45:00,